Regional Weather Roundup
Issued by NWS Memphis, TN

Home | Current Version | Previous Version | Text Only | Print | Product List | Glossary On
Versions: 1 2 3 4 5 6 7 8 9 10 11 12 13 14 15 16 17 18 19 20 21 22 23 24 25 26 27 28 29 30 31 32 33 34 35 36 37 38 39 40 41 42 43 44 45 46 47 48 49 50
000
ASUS44 KMEG 300510
RWRMEG
MEMPHIS CWA HOURLY WEATHER ROUNDUP
NATIONAL WEATHER SERVICE MEMPHIS TN
1200 AM CDT MON MAY 30 2016

...WEST TENNESSEE...

CITY           SKY/WX    TMP DP  RH WIND       PRES   REMARKS
MEMPHIS INTL   CLOUDY    76  69  79 CALM      30.06S
NWS MEMPHIS      N/A     74 N/A N/A MISG        N/A
JACKSON        MOCLDY    71  69  93 CALM      30.05S
LEXINGTON      CLEAR     70  70 100 CALM      30.04S
DYERSBURG      CLEAR     72  66  83 CALM      30.06R
UNION CITY     CLEAR     73  68  83 CALM      30.04S
PARIS          CLEAR     66  64  94 CALM      30.06S


...EASTERN ARKANSAS...

CITY           SKY/WX    TMP DP  RH WIND       PRES   REMARKS
JONESBORO      CLEAR     73  67  81 NW5       30.05S
WEST MEMPHIS   PTCLDY    73  71  93 SW3       30.04F
BATESVILLE     CLOUDY    70  66  88 CALM      30.09S
NEWPORT        CLEAR     74  74 100 W5        30.08S
WALNUT RIDGE   CLEAR     73  66  78 CALM      30.06S
BLYTHEVILLE    CLEAR     75  71  87 W5        30.06S
SEARCY         CLEAR     68  68 100 CALM      30.09F
STUTTGART      CLEAR     68  63  83 NW3       30.06F
PINE BLUFF     CLOUDY    67  64  90 CALM      30.07S
MONTICELLO     CLOUDY    69  64  84 NW6       30.07S


...NORTH MISSISSIPPI...

CITY           SKY/WX    TMP DP  RH WIND       PRES   REMARKS
TUPELO         PTCLDY    76  67  73 CALM      30.05S
OXFORD         PTCLDY    72  66  83 CALM      30.07S
BATESVILLE     CLOUDY    72  66  82 CALM      30.06S
OLIVE BRANCH   CLEAR     72  72 100 CALM      30.07R
TUNICA         CLOUDY    70  66  88 NW5       30.06S
CLARKSDALE     CLEAR     72  72 100 NW7       30.06S
CORINTH        PTCLDY    72  70  94 CALM      30.05S
GREENWOOD      CLOUDY    73  63  70 CALM      30.05R
COLUMBUS       CLOUDY    70  67  88 W2        30.04S
STARKVILLE     CLOUDY    72  66  83 CALM      30.06R
GOLDEN TRIANGL CLOUDY    75  64  69 NW3       30.05R


...SOUTHEAST MISSOURI...

CITY           SKY/WX    TMP DP  RH WIND       PRES   REMARKS
KENNETT        CLEAR     75  68  78 NW6       30.05R
WEST PLAINS    CLOUDY    65  62  90 W3        30.12S
POPLAR BLUFF   CLEAR     71  67  87 CALM      30.06S
CAPE GIRARDEAU CLEAR     66  64  93 CALM      30.05S


...NORTHWEST ALABAMA...

CITY           SKY/WX    TMP DP  RH WIND       PRES   REMARKS
MUSCLE SHOALS  CLOUDY    72  66  81 CALM      30.06S


...MIDDLE TENNESSEE...

CITY           SKY/WX    TMP DP  RH WIND       PRES   REMARKS
NASHVILLE      PTCLDY    75  66  73 NW3       30.04F
CLARKSVILLE    MOCLDY    71  66  84 CALM      30.04S
COLUMBIA       CLEAR    N/A N/A N/A CALM      30.04S


...WESTERN KENTUCKY...

CITY           SKY/WX    TMP DP  RH WIND       PRES   REMARKS
PADUCAH        CLEAR     65  61  87 CALM      30.05R
FORT CAMPBELL  PTCLDY    71  66  82 W3        30.04S


...CENTRAL ARKANSAS...

CITY           SKY/WX    TMP DP  RH WIND       PRES   REMARKS
LITTLE ROCK    MOCLDY    68  64  87 CALM      30.07F


SKY/WX REPORTED AS FAIR MEANS FEW OR NO CLOUDS BELOW
12 THOUSAND FEET.





USA.gov is the U.S. government's official web portal to all federal, state and local government web resources and services.